Tracking 22124 objects as of 23-Jan-2021
HD Live streaming from Space Station
objects crossing your sky now

GLOBALSTAR M040

Track GLOBALSTAR M040 now!
10-day predictions
GLOBALSTAR M040 is classified as:


NORAD ID: 25622
Int'l Code: 1999-004B
Perigee: 1,421.1 km
Apogee: 1,423.4 km
Inclination: 52.0 °
Period: 114.1 minutes
Semi major axis: 7793 km
RCS: 2.1681 m2 (large)
Launch date: February 9, 1999
Source: Globalstar (GLOB)
Launch site: TYURATAM MISSILE AND SPACE COMPLEX (TTMTR)
aabbcc
Your satellite tracking list
Your tracking list is empty




NASA's NSSDC Master Catalog

Two Line Element Set (TLE):
1 25622U 99004B   21022.83876238 -.00000088  00000-0  89106-4 0  9996
2 25622  51.9909 266.0120 0001472  68.4911   9.6907 12.61903008 12578
Source of the keplerian elements: AFSPC